• In Hungary
  • List of Countries
  • For 7 days
  • Water Temperature
  • Satellite Maps
  • Weather Map
  • News
  • Weather Widgets
  • user-avatar
    Login

    Hourly Weather Novokaltaevo

    Today, 19 July, Thursday

    Time Temperature Precipitation Wind Pressure Humidity
    00:00 +20°C° 0.4 mm 3 mps 743 mmHg 85%
    01:00 +20°C° 0.4 mm 3 mps 743 mmHg 86%
    02:00 +19°C° 0.4 mm 3 mps 743 mmHg 88%
    03:00 +19°C° 0.4 mm 3 mps 743 mmHg 89%
    04:00 +18°C° 0 mm 3 mps 743 mmHg 92%
    05:00 +19°C° 0.5 mm 3 mps 743 mmHg 90%
    06:00 +20°C° 0.5 mm 3 mps 743 mmHg 87%
    07:00 +21°C° 0.5 mm 3 mps 743 mmHg 84%
    08:00 +24°C° 0.1 mm 2 mps 743 mmHg 78%
    09:00 +25°C° 0.1 mm 2 mps 743 mmHg 73%
    10:00 +27°C° 0.1 mm 2 mps 743 mmHg 67%
    11:00 +28°C° 0.2 mm 1 mps 743 mmHg 61%
    12:00 +29°C° 0.2 mm 1 mps 743 mmHg 56%
    13:00 +29°C° 0.2 mm 0 mps 743 mmHg 50%
    14:00 +29°C° 0 mm 0 mps 743 mmHg 49%
    15:00 +29°C° 0 mm 0 mps 743 mmHg 48%
    16:00 +29°C° 0 mm 0 mps 743 mmHg 47%
    17:00 +30°C° 0 mm 1 mps 743 mmHg 52%
    18:00 +30°C° 0 mm 1 mps 743 mmHg 57%
    19:00 +29°C° 0 mm 1 mps 743 mmHg 62%
    20:00 +27°C° 0 mm 2 mps 743 mmHg 66%
    21:00 +26°C° 0 mm 2 mps 744 mmHg 70%
    22:00 +24°C° 0 mm 2 mps 744 mmHg 73%
    23:00 +23°C° 0 mm 2 mps 744 mmHg 75%

    Tomorrow, 20 July, Friday

    Time Temperature Precipitation Wind Pressure Humidity
    00:00 +23°C° 0 mm 2 mps 744 mmHg 77%
    01:00 +22°C° 0 mm 1 mps 743 mmHg 80%
    02:00 +22°C° 0.1 mm 1 mps 744 mmHg 80%
    03:00 +21°C° 0.1 mm 1 mps 744 mmHg 81%
    04:00 +21°C° 0.1 mm 1 mps 744 mmHg 81%
    05:00 +22°C° 0 mm 1 mps 744 mmHg 79%
    06:00 +23°C° 0 mm 1 mps 744 mmHg 76%
    07:00 +24°C° 0 mm 2 mps 744 mmHg 74%
    08:00 +26°C° 0 mm 2 mps 744 mmHg 69%
    09:00 +27°C° 0 mm 2 mps 744 mmHg 64%
    10:00 +29°C° 0 mm 2 mps 744 mmHg 59%
    11:00 +30°C° 0.2 mm 2 mps 744 mmHg 56%
    12:00 +30°C° 0.2 mm 2 mps 744 mmHg 52%
    13:00 +31°C° 0.2 mm 1 mps 744 mmHg 49%
    14:00 +31°C° 0 mm 2 mps 744 mmHg 49%
    15:00 +31°C° 0 mm 2 mps 744 mmHg 50%
    16:00 +31°C° 0 mm 2 mps 744 mmHg 50%
    17:00 +30°C° 0.2 mm 2 mps 744 mmHg 57%
    18:00 +29°C° 0.2 mm 3 mps 744 mmHg 65%
    19:00 +28°C° 0.2 mm 3 mps 744 mmHg 72%
    20:00 +26°C° 0 mm 3 mps 744 mmHg 75%
    21:00 +25°C° 0 mm 3 mps 744 mmHg 79%
    22:00 +22°C° 0 mm 3 mps 744 mmHg 82%
    23:00 +22°C° 0 mm 3 mps 744 mmHg 84%

    Day after tomorrow, 21 July, Saturday

    Time Temperature Precipitation Wind Pressure Humidity
    00:00 +21°C° 0 mm 3 mps 744 mmHg 86%
    01:00 +20°C° 0 mm 3 mps 744 mmHg 88%
    02:00 +20°C° 0 mm 4 mps 744 mmHg 88%
    03:00 +20°C° 0 mm 4 mps 744 mmHg 89%
    04:00 +19°C° 0 mm 4 mps 744 mmHg 90%
    05:00 +20°C° 0 mm 4 mps 744 mmHg 88%
    06:00 +21°C° 0 mm 5 mps 744 mmHg 86%
    07:00 +21°C° 0 mm 5 mps 744 mmHg 84%
    08:00 +22°C° 0 mm 5 mps 744 mmHg 80%
    09:00 +23°C° 0 mm 5 mps 745 mmHg 77%
    10:00 +25°C° 0 mm 5 mps 745 mmHg 73%
    11:00 +26°C° 0 mm 5 mps 745 mmHg 70%
    12:00 +27°C° 0 mm 5 mps 744 mmHg 67%
    13:00 +28°C° 0 mm 5 mps 744 mmHg 64%
    14:00 +28°C° 0 mm 5 mps 744 mmHg 63%
    15:00 +28°C° 0 mm 5 mps 744 mmHg 63%
    16:00 +28°C° 0 mm 6 mps 744 mmHg 62%
    17:00 +28°C° 0 mm 5 mps 744 mmHg 66%
    18:00 +27°C° 0 mm 5 mps 744 mmHg 70%
    19:00 +26°C° 0 mm 4 mps 744 mmHg 74%
    20:00 +25°C° 0 mm 5 mps 744 mmHg 75%
    21:00 +23°C° 0 mm 5 mps 744 mmHg 76%
    22:00 +22°C° 0 mm 5 mps 744 mmHg 77%
    23:00 +21°C° 0 mm 5 mps 744 mmHg 77%

    22 July, Sunday

    Time Temperature Precipitation Wind Pressure Humidity
    00:00 +21°C° 0 mm 5 mps 744 mmHg 76%
    01:00 +21°C° 0 mm 5 mps 744 mmHg 76%
    02:00 +20°C° 0 mm 5 mps 744 mmHg 77%
    03:00 +20°C° 0 mm 5 mps 744 mmHg 79%
    04:00 +19°C° 0 mm 4 mps 744 mmHg 80%
    05:00 +20°C° 0 mm 5 mps 744 mmHg 79%
    06:00 +20°C° 0 mm 6 mps 744 mmHg 79%
    07:00 +21°C° 0 mm 7 mps 744 mmHg 78%
    08:00 +22°C° 0 mm 7 mps 744 mmHg 75%
    09:00 +23°C° 0 mm 7 mps 744 mmHg 71%
    10:00 +24°C° 0 mm 7 mps 744 mmHg 68%
    11:00 +24°C° 0 mm 8 mps 744 mmHg 65%
    12:00 +26°C° 0 mm 8 mps 744 mmHg 62%
    13:00 +27°C° 0 mm 8 mps 744 mmHg 59%
    14:00 +27°C° 0 mm 8 mps 744 mmHg 59%
    15:00 +27°C° 0 mm 7 mps 744 mmHg 59%
    16:00 +27°C° 0 mm 7 mps 744 mmHg 58%
    17:00 +26°C° 0 mm 6 mps 744 mmHg 62%
    18:00 +24°C° 0 mm 6 mps 744 mmHg 65%
    19:00 +23°C° 0 mm 5 mps 745 mmHg 69%
    20:00 +22°C° 0 mm 5 mps 745 mmHg 65%
    21:00 +21°C° 0 mm 5 mps 745 mmHg 61%
    22:00 +20°C° 0 mm 6 mps 745 mmHg 58%
    23:00 +19°C° 0 mm 6 mps 745 mmHg 58%

    23 July, Monday

    Time Temperature Precipitation Wind Pressure Humidity
    00:00 +17°C° 0 mm 6 mps 745 mmHg 58%
    01:00 +17°C° 0 mm 6 mps 746 mmHg 58%
    02:00 +16°C° 0 mm 5 mps 746 mmHg 59%
    03:00 +15°C° 0 mm 5 mps 746 mmHg 60%
    04:00 +15°C° 0 mm 5 mps 746 mmHg 61%
    05:00 +15°C° 0 mm 6 mps 746 mmHg 62%
    06:00 +15°C° 0 mm 6 mps 747 mmHg 63%
    07:00 +15°C° 0 mm 7 mps 747 mmHg 64%
    08:00 +17°C° 0 mm 7 mps 747 mmHg 60%
    09:00 +18°C° 0 mm 7 mps 747 mmHg 56%
    10:00 +21°C° 0 mm 7 mps 747 mmHg 52%
    11:00 +22°C° 0 mm 7 mps 747 mmHg 50%
    12:00 +23°C° 0 mm 7 mps 747 mmHg 47%
    13:00 +24°C° 0 mm 7 mps 747 mmHg 45%
    14:00 +24°C° 0 mm 7 mps 747 mmHg 45%
    15:00 +24°C° 0 mm 7 mps 747 mmHg 46%
    16:00 +24°C° 0 mm 7 mps 747 mmHg 46%
    17:00 +24°C° 0 mm 6 mps 747 mmHg 51%
    18:00 +23°C° 0 mm 5 mps 747 mmHg 57%
    19:00 +22°C° 0 mm 4 mps 747 mmHg 62%
    20:00 +20°C° 0 mm 4 mps 748 mmHg 63%
    21:00 +19°C° 0 mm 5 mps 748 mmHg 64%
    22:00 +17°C° 0 mm 5 mps 748 mmHg 65%
    23:00 +16°C° 0 mm 5 mps 749 mmHg 65%

    24 July, Tuesday

    Time Temperature Precipitation Wind Pressure Humidity
    00:00 +16°C° 0 mm 5 mps 749 mmHg 64%
    01:00 +15°C° 0 mm 5 mps 749 mmHg 64%
    02:00 +15°C° 0 mm 5 mps 749 mmHg 65%
    03:00 +14°C° 0 mm 5 mps 749 mmHg 67%
    04:00 +14°C° 0 mm 4 mps 749 mmHg 68%
    05:00 +15°C° 0 mm 5 mps 750 mmHg 67%
    06:00 +15°C° 0 mm 5 mps 750 mmHg 67%
    07:00 +16°C° 0 mm 5 mps 750 mmHg 66%
    08:00 +19°C° 0 mm 5 mps 750 mmHg 61%
    09:00 +20°C° 0 mm 5 mps 751 mmHg 56%
    10:00 +22°C° 0 mm 5 mps 751 mmHg 51%
    11:00 +23°C° 0 mm 5 mps 751 mmHg 49%
    12:00 +25°C° 0 mm 5 mps 751 mmHg 47%
    13:00 +26°C° 0 mm 5 mps 751 mmHg 45%
    14:00 +26°C° 0 mm 5 mps 751 mmHg 45%
    15:00 +26°C° 0 mm 5 mps 750 mmHg 46%
    16:00 +26°C° 0 mm 4 mps 750 mmHg 46%
    17:00 +26°C° 0 mm 4 mps 750 mmHg 51%
    18:00 +25°C° 0 mm 3 mps 750 mmHg 57%
    19:00 +24°C° 0 mm 2 mps 750 mmHg 62%
    20:00 +23°C° 0 mm 2 mps 751 mmHg 64%
    21:00 +20°C° 0 mm 3 mps 751 mmHg 67%
    22:00 +18°C° 0 mm 3 mps 751 mmHg 69%
    23:00 +18°C° 0 mm 3 mps 751 mmHg 68%
    Show more